Current weather by "City, St" or "zip code"  
 

Current Conditions: MASON

Clear


51.6 F

Last Updated on May 26 2024, 04:35 AM EDT
Humidity: 90%
Wind Speed: 0.0 mph
Barometer 29.89 in
Dewpoint: 48.7 F
Visibility: 10.00 mi
Precip: --
Heat Index: NA
Wind Chill: NA
Current conditions at:

MASON (KTEW)

Lat: 42.57 Lon: 84.42

active severe weather and emergency alerts image image weather storm and storm spotter reports image weather observation monitoring service image
Active
Alerts
Storm Reports Obs
Monitoring

Sign-up For Email & Text Message Weather Alert Notification Services



Advertise Here

Observation History for MASON


Time Wind
(mph)
Vis
(mi)
Weather Precip (in) Temperature (F) Relative
Humidity
Wind
Chill
(F)
Heat
Index
(F)
Pressure
Air Dwpt altimeter
(in)
sea level
(mb)
Rmks
04:35 AM EDT 0.0 10.00 Clear -- 51.6 48.7 90% NA NA 29.89 1012.2
03:55 AM EDT 0.0 10.00 Clear -- 52.5 49.5 89% NA NA 29.91 1012.9
02:55 AM EDT 0.0 10.00 Clear -- 52.7 50.0 91% NA NA 29.92 1013.2
02:35 AM EDT 0.0 10.00 Clear -- 53.1 50.4 91% NA NA 29.92 1013.2
01:55 AM EDT 0.0 10.00 Clear -- 54.1 50.2 86% NA NA 29.92 1013.2
01:35 AM EDT 0.0 10.00 Clear -- 53.8 50.4 88% NA NA 29.92 1013.2
12:55 AM EDT 0.0 10.00 Clear -- 55.9 49.1 78% NA NA 29.91 1012.9
12:35 AM EDT 0.0 10.00 Clear -- 55.4 49.6 81% NA NA 29.92 1013.2
12:15 AM EDT 0.0 10.00 Clear -- 55.4 49.6 81% NA NA 29.92 1013.2
11:55 PM EDT 0.0 10.00 Clear -- 56.1 49.8 79% NA NA 29.91 1012.9
10:55 PM EDT 0.0 10.00 Clear -- 59.0 49.3 70% NA NA 29.92 1013.2
10:35 PM EDT 0.0 10.00 Clear -- 59.9 48.9 67% NA NA 29.92 1013.2
10:15 PM EDT 0.0 10.00 Clear -- 62.1 45.7 55% NA NA 29.91 1012.9
09:55 PM EDT 0.0 10.00 Clear -- 63.7 44.8 50% NA NA 29.90 1012.5
09:35 PM EDT 0.0 10.00 Clear -- 65.8 41.7 41% NA NA 29.89 1012.2
09:15 PM EDT 4.7 10.00 Clear -- 68.0 % NA NA 29.89 1012.2
07:55 PM EDT 9.2 10.00 Clear -- 72.9 % NA NA 29.87 1011.5
07:15 PM EDT 10.3 10.00 Clear -- 74.3 % NA NA 29.86 1011.2
06:55 PM EDT NW 8.1 10.00 Clear -- 74.8 42.3 31% NA 73.4 29.85 1010.8
06:35 PM EDT 8.1 10.00 Clear -- 74.8 % NA NA 29.84 1010.5
05:55 PM EDT 9.2 10.00 Clear -- 74.8 % NA NA 29.84 1010.5
05:35 PM EDT 11.4 10.00 Clear -- 75.7 % NA NA 29.85 1010.8
05:15 PM EDT 8.1 10.00 NULL -- 75.4 % NA NA 29.85 1010.8
04:55 PM EDT NW 8.1 10.00 Clear -- 75.4 % NA NA 29.85 1010.8

Regional Weather Observation


CHARLOTTE (KFPK)

Clear
48.2 F

MASON (KTEW)

Clear
51.6 F

JACKSON/REYNOLDS (KJXN)

Clear
50.0 F

MARSHALL (KRMY)

Clear
51.1 F

IONIA (KY70)

Clear
50.4 F

OWOSSO (KRNP)

Clear
51.8 F

Advertise Here


Advertise Here